This is the latest recevied weather packets stored in our database for station/object N8AMF. If no packets are shown the sender has not sent any weather packets the latest 10 day(s).
| Time | Temp. | Humidity | Pressure | Rain* | Wind** | Luminosity | Snow |
|---|---|---|---|---|---|---|---|
| 1777583851 | 12.22° C | 56% | 1013.5 hPa | 0 mm | - | 530 W/m² | - |
| 1777583548 | 12.22° C | 50% | 1013.6 hPa | 0 mm | - | 548 W/m² | - |
| 1777583241 | 12.22° C | 51% | 1013.6 hPa | 0 mm | - | 569 W/m² | - |
| 1777582936 | 12.22° C | 57% | 1013.5 hPa | 0 mm | - | 588 W/m² | - |
| 1777582634 | 12.22° C | 52% | 1013.7 hPa | 0 mm | - | 607 W/m² | - |
| 1777582334 | 12.78° C | 59% | 1013.6 hPa | 0 mm | - | 622 W/m² | - |
| 1777582033 | 12.22° C | 55% | 1013.6 hPa | 0 mm | - | 639 W/m² | - |
| 1777581727 | 11.67° C | 54% | 1013.7 hPa | 0 mm | - | 654 W/m² | - |
| 1777581426 | 11.11° C | 55% | 1013.6 hPa | 0 mm | - | 673 W/m² | - |
| 1777581126 | 11.67° C | 52% | 1013.9 hPa | 0 mm | - | 690 W/m² | - |
| 1777580821 | 11.67° C | 56% | 1013.7 hPa | 0 mm | - | 708 W/m² | - |
| 1777580517 | 11.67° C | 56% | 1013.8 hPa | 0 mm | - | 726 W/m² | - |
| 1777580212 | 12.22° C | 53% | 1013.8 hPa | 0 mm | - | 758 W/m² | - |
| 1777579910 | 12.22° C | 54% | 1013.7 hPa | 0 mm | - | 766 W/m² | - |
| 1777579610 | 12.22° C | 53% | 1013.6 hPa | 0 mm | - | 741 W/m² | - |
| 1777579303 | 12.22° C | 59% | 1013.6 hPa | 0 mm | - | 787 W/m² | - |
| 1777578999 | 11.67° C | 55% | 1013.6 hPa | 0 mm | - | 790 W/m² | - |
| 1777578695 | 12.22° C | 55% | 1013.6 hPa | 0 mm | - | 789 W/m² | - |
| 1777578393 | 12.22° C | 55% | 1013.6 hPa | 0 mm | - | 782 W/m² | - |
| 1777578090 | 12.22° C | 54% | 1013.9 hPa | 0 mm | - | 781 W/m² | - |
| 1777577786 | 12.22° C | 57% | 1013.7 hPa | 0 mm | - | 771 W/m² | - |
| 1777577482 | 12.22° C | 54% | 1013.8 hPa | 0 mm | - | 762 W/m² | - |
| 1777577179 | 12.22° C | 55% | 1014 hPa | 0 mm | - | 752 W/m² | - |
| 1777576875 | 11.67° C | 57% | 1013.9 hPa | 0 mm | - | 750 W/m² | - |
| 1777576574 | 11.67° C | 60% | 1014.1 hPa | 0 mm | - | 785 W/m² | - |
* Rain latest hour (hover to see other rain measurements)
** Current wind speed in m/s (hover to see current wind gust speed)